Location: Salillas
(41.9950°N, 0.2228°W)
Time: 00:33:00
(UTC+00:00)

SL-16 R/B - Pass Details

Date: 29 March 2020
Orbit: 840 x 849 km, 71.0° (Epoch: 05 June)

Event Time Altitude Azimuth Distance (km) Brightness Sun altitude
Rises 18:43:12 0° 174° (S) 3,383 5.2 -4.4°
Reaches altitude 10° 18:45:53 10° 164° (SSE) 2,451 4.4 -4.9°
Maximum altitude 18:50:44 31° 104° (ESE) 1,443 2.9 -5.8°
Drops below altitude 10° 18:55:37 10° 44° (NE) 2,464 4.3 -6.7°
Sets 18:58:18 0° 34° (NE) 3,403 5.1 -7.2°
